• In Czech Republic
  • List of Countries
  • For 7 days
  • Water Temperature
  • Satellite Maps
  • Weather Map
  • Weather Widgets
  • user-avatar
    Login

    Hourly Weather Rawson

    Today, 21 September, Friday

    Time Temperature Precipitation Wind Pressure Humidity
    00:00 +15°C° 0 mm 7 mps 747 mmHg 42%
    01:00 +14°C° 0 mm 7 mps 747 mmHg 43%
    02:00 +12°C° 0 mm 7 mps 748 mmHg 44%
    03:00 +12°C° 0 mm 7 mps 748 mmHg 45%
    04:00 +12°C° 0 mm 7 mps 748 mmHg 45%
    05:00 +11°C° 0 mm 7 mps 748 mmHg 46%
    06:00 +12°C° 0 mm 7 mps 749 mmHg 45%
    07:00 +12°C° 0 mm 7 mps 749 mmHg 44%
    08:00 +13°C° 0 mm 8 mps 750 mmHg 43%
    09:00 +15°C° 0 mm 8 mps 750 mmHg 39%
    10:00 +16°C° 0 mm 8 mps 750 mmHg 35%
    11:00 +17°C° 0 mm 9 mps 750 mmHg 31%
    12:00 +18°C° 0 mm 8 mps 750 mmHg 30%
    13:00 +18°C° 0 mm 8 mps 750 mmHg 29%
    14:00 +18°C° 0 mm 7 mps 751 mmHg 27%
    15:00 +17°C° 0 mm 7 mps 751 mmHg 31%
    16:00 +17°C° 0 mm 6 mps 751 mmHg 35%
    17:00 +16°C° 0 mm 5 mps 751 mmHg 38%
    18:00 +14°C° 0.2 mm 6 mps 751 mmHg 51%
    19:00 +11°C° 0.2 mm 6 mps 751 mmHg 64%
    20:00 +9°C° 0.2 mm 7 mps 751 mmHg 77%
    21:00 +8°C° 1.7 mm 7 mps 751 mmHg 81%
    22:00 +8°C° 1.7 mm 7 mps 750 mmHg 84%
    23:00 +8°C° 1.7 mm 7 mps 750 mmHg 88%

    Tomorrow, 22 September, Saturday

    Time Temperature Precipitation Wind Pressure Humidity
    00:00 +7°C° 1.1 mm 8 mps 749 mmHg 88%
    01:00 +7°C° 1.1 mm 8 mps 749 mmHg 88%
    02:00 +7°C° 1.1 mm 8 mps 748 mmHg 89%
    03:00 +7°C° 0.2 mm 8 mps 748 mmHg 90%
    04:00 +8°C° 0.2 mm 7 mps 748 mmHg 91%
    05:00 +8°C° 0.2 mm 7 mps 747 mmHg 92%
    06:00 +9°C° 0.1 mm 5 mps 748 mmHg 90%
    07:00 +10°C° 0.1 mm 4 mps 748 mmHg 88%
    08:00 +10°C° 0.1 mm 3 mps 748 mmHg 86%
    09:00 +11°C° 0 mm 4 mps 749 mmHg 81%
    10:00 +10°C° 0 mm 6 mps 749 mmHg 76%
    11:00 +10°C° 0 mm 8 mps 750 mmHg 71%
    12:00 +10°C° 0 mm 8 mps 750 mmHg 71%
    13:00 +9°C° 0 mm 8 mps 750 mmHg 71%
    14:00 +8°C° 0 mm 9 mps 750 mmHg 72%
    15:00 +9°C° 0 mm 8 mps 751 mmHg 72%
    16:00 +7°C° 0 mm 8 mps 751 mmHg 73%
    17:00 +8°C° 0 mm 7 mps 752 mmHg 73%
    18:00 +6°C° 0 mm 7 mps 752 mmHg 75%
    19:00 +7°C° 0 mm 6 mps 753 mmHg 77%
    20:00 +5°C° 0 mm 6 mps 754 mmHg 79%
    21:00 +6°C° 0 mm 5 mps 754 mmHg 79%
    22:00 +6°C° 0 mm 5 mps 755 mmHg 79%
    23:00 +6°C° 0 mm 4 mps 755 mmHg 80%

    Day after tomorrow, 23 September, Sunday

    Time Temperature Precipitation Wind Pressure Humidity
    00:00 +6°C° 0.1 mm 4 mps 755 mmHg 81%
    01:00 +6°C° 0.1 mm 4 mps 755 mmHg 82%
    02:00 +6°C° 0.1 mm 4 mps 755 mmHg 83%
    03:00 +6°C° 0 mm 4 mps 755 mmHg 84%
    04:00 +6°C° 0 mm 5 mps 755 mmHg 86%
    05:00 +6°C° 0 mm 5 mps 755 mmHg 88%
    06:00 +7°C° 0 mm 5 mps 755 mmHg 83%
    07:00 +8°C° 0 mm 5 mps 755 mmHg 77%
    08:00 +9°C° 0 mm 5 mps 755 mmHg 72%
    09:00 +12°C° 0 mm 5 mps 755 mmHg 59%
    10:00 +14°C° 0 mm 6 mps 755 mmHg 46%
    11:00 +15°C° 0 mm 6 mps 755 mmHg 32%
    12:00 +16°C° 0 mm 7 mps 755 mmHg 31%
    13:00 +16°C° 0 mm 8 mps 755 mmHg 30%
    14:00 +16°C° 0 mm 9 mps 755 mmHg 28%
    15:00 +16°C° 0 mm 9 mps 755 mmHg 28%
    16:00 +15°C° 0 mm 9 mps 756 mmHg 28%
    17:00 +15°C° 0 mm 9 mps 756 mmHg 27%
    18:00 +13°C° 0 mm 9 mps 757 mmHg 30%
    19:00 +12°C° 0 mm 8 mps 758 mmHg 33%
    20:00 +11°C° 0 mm 8 mps 758 mmHg 36%
    21:00 +11°C° 0 mm 8 mps 759 mmHg 37%
    22:00 +10°C° 0 mm 8 mps 760 mmHg 39%
    23:00 +10°C° 0 mm 9 mps 760 mmHg 40%

    24 September, Monday

    Time Temperature Precipitation Wind Pressure Humidity
    00:00 +8°C° 0 mm 9 mps 761 mmHg 41%
    01:00 +7°C° 0 mm 9 mps 761 mmHg 42%
    02:00 +7°C° 0 mm 8 mps 761 mmHg 44%
    03:00 +6°C° 0 mm 8 mps 762 mmHg 46%
    04:00 +6°C° 0 mm 8 mps 762 mmHg 48%
    05:00 +5°C° 0 mm 8 mps 762 mmHg 50%
    06:00 +6°C° 0 mm 7 mps 762 mmHg 49%
    07:00 +8°C° 0 mm 7 mps 762 mmHg 48%
    08:00 +8°C° 0 mm 7 mps 763 mmHg 47%
    09:00 +9°C° 0 mm 6 mps 763 mmHg 42%
    10:00 +12°C° 0 mm 5 mps 763 mmHg 37%
    11:00 +13°C° 0 mm 5 mps 763 mmHg 32%
    12:00 +14°C° 0 mm 5 mps 762 mmHg 29%
    13:00 +15°C° 0 mm 5 mps 761 mmHg 26%
    14:00 +15°C° 0 mm 4 mps 761 mmHg 23%
    15:00 +16°C° 0 mm 5 mps 760 mmHg 23%
    16:00 +16°C° 0 mm 5 mps 760 mmHg 23%
    17:00 +16°C° 0 mm 5 mps 759 mmHg 23%
    18:00 +15°C° 0 mm 7 mps 759 mmHg 29%
    19:00 +13°C° 0 mm 8 mps 759 mmHg 34%
    20:00 +12°C° 0 mm 9 mps 758 mmHg 39%
    21:00 +12°C° 0 mm 10 mps 758 mmHg 39%
    22:00 +13°C° 0 mm 10 mps 758 mmHg 39%
    23:00 +13°C° 0 mm 11 mps 757 mmHg 39%

    25 September, Tuesday

    Time Temperature Precipitation Wind Pressure Humidity
    00:00 +13°C° 0 mm 10 mps 757 mmHg 40%
    01:00 +12°C° 0 mm 9 mps 757 mmHg 42%
    02:00 +12°C° 0 mm 8 mps 757 mmHg 43%
    03:00 +11°C° 0 mm 7 mps 757 mmHg 43%
    04:00 +11°C° 0 mm 7 mps 757 mmHg 44%
    05:00 +10°C° 0 mm 6 mps 757 mmHg 44%
    06:00 +10°C° 0 mm 6 mps 758 mmHg 43%
    07:00 +10°C° 0 mm 6 mps 758 mmHg 41%
    08:00 +10°C° 0 mm 6 mps 759 mmHg 40%
    09:00 +11°C° 0 mm 6 mps 759 mmHg 35%
    10:00 +13°C° 0 mm 6 mps 759 mmHg 30%
    11:00 +15°C° 0 mm 6 mps 759 mmHg 26%
    12:00 +15°C° 0 mm 6 mps 759 mmHg 24%
    13:00 +16°C° 0 mm 6 mps 758 mmHg 23%
    14:00 +17°C° 0 mm 5 mps 758 mmHg 22%
    15:00 +17°C° 0 mm 5 mps 758 mmHg 22%
    16:00 +17°C° 0 mm 4 mps 757 mmHg 23%
    17:00 +17°C° 0 mm 4 mps 757 mmHg 23%
    18:00 +15°C° 0 mm 4 mps 757 mmHg 27%
    19:00 +14°C° 0 mm 4 mps 757 mmHg 30%
    20:00 +13°C° 0 mm 3 mps 757 mmHg 34%
    21:00 +13°C° 0 mm 4 mps 758 mmHg 38%
    22:00 +12°C° 0 mm 5 mps 758 mmHg 42%
    23:00 +12°C° 0 mm 5 mps 758 mmHg 46%

    26 September, Wednesday

    Time Temperature Precipitation Wind Pressure Humidity
    00:00 +10°C° 0 mm 5 mps 758 mmHg 45%
    01:00 +9°C° 0 mm 5 mps 758 mmHg 45%
    02:00 +9°C° 0 mm 5 mps 758 mmHg 44%
    03:00 +8°C° 0 mm 5 mps 758 mmHg 45%
    04:00 +8°C° 0 mm 6 mps 759 mmHg 45%
    05:00 +7°C° 0 mm 6 mps 759 mmHg 45%
    06:00 +6°C° 0 mm 7 mps 759 mmHg 44%
    07:00 +8°C° 0 mm 7 mps 760 mmHg 42%
    08:00 +7°C° 0 mm 8 mps 760 mmHg 41%
    09:00 +9°C° 0 mm 7 mps 760 mmHg 37%
    10:00 +11°C° 0 mm 6 mps 761 mmHg 33%
    11:00 +13°C° 0 mm 6 mps 761 mmHg 29%
    12:00 +14°C° 0 mm 5 mps 761 mmHg 28%
    13:00 +14°C° 0 mm 5 mps 761 mmHg 27%
    14:00 +15°C° 0 mm 4 mps 761 mmHg 26%
    15:00 +14°C° 0 mm 4 mps 761 mmHg 30%
    16:00 +14°C° 0 mm 5 mps 761 mmHg 33%
    17:00 +13°C° 0 mm 5 mps 761 mmHg 37%
    18:00 +12°C° 0 mm 5 mps 761 mmHg 44%
    19:00 +11°C° 0 mm 4 mps 762 mmHg 50%
    20:00 +10°C° 0 mm 4 mps 762 mmHg 57%
    21:00 +9°C° 0 mm 5 mps 762 mmHg 58%
    22:00 +9°C° 0 mm 6 mps 762 mmHg 58%
    23:00 +8°C° 0 mm 6 mps 762 mmHg 58%
    Show more